Location: NJAA Observatory
(40.6819°N, 74.8979°W)
Time: 19:42:56
(UTC-04:00)

Iridium 56 - Visible Passes

Search period start: 02 September 2014 00:00
Search period end: 12 September 2014 00:00
Orbit: 776 x 779 km, 86.4° (Epoch: 02 September)

Date Brightness Start Highest point End Pass type
(mag) Time Alt. Az. Time Alt. Az. Time Alt. Az.
02 Sep 8.4 04:55:19 10° ESE 04:58:50 19° E 05:02:21 10° NE visible
03 Sep 5.6 06:00:20 10° S 06:05:32 90° E 06:10:47 10° N visible
04 Sep 6.6 05:27:07 10° SSE 05:32:06 49° E 05:37:06 10° NNE visible
05 Sep 7.7 04:54:29 10° SE 04:58:46 27° E 05:03:04 10° NNE visible
06 Sep 8.4 04:22:48 10° ESE 04:25:34 15° ENE 04:28:20 10° NE visible
06 Sep 5.6 06:00:32 10° SSW 06:05:40 63° W 06:10:51 10° N visible
07 Sep 5.8 05:26:59 10° S 05:32:09 71° E 05:37:21 10° N visible
08 Sep 7.0 04:53:59 10° SSE 04:58:45 38° E 05:03:32 10° NNE visible
09 Sep 8.0 04:21:39 10° SE 04:25:29 21° E 04:29:18 10° NNE visible
09 Sep 5.9 06:00:55 10° SSW 06:05:51 43° W 06:10:48 10° N visible
10 Sep 8.6 03:50:49 10° E 03:52:19 11° ENE 03:53:50 10° ENE visible
10 Sep 5.5 05:27:03 10° S 05:32:15 80° W 05:37:29 10° N visible
11 Sep 6.2 04:53:43 10° SSE 04:58:47 56° E 05:03:52 10° NNE visible
